Wetterdaten: Mittwoch, 02.11.2011
Datum Zeit Temp. A. Feuchte A. Luftdruck Regen Wind Richtung Richtung Sonnenschein UV Solar Windben
02.11.2011 00:00 7,6 C 92 % 1014,6 hPa 0,0 mm 0,0 km/h (0 Bft) N 0 0 min 0 UV-I 0 W/m 0,0 km/h (0 Bft)
02.11.2011 00:10 7,4 C 92 % 1014,7 hPa 0,0 mm 0,0 km/h (0 Bft) N 0 0 min 0 UV-I 0 W/m 0,0 km/h (0 Bft)
02.11.2011 00:20 7,2 C 93 % 1014,6 hPa 0,0 mm 0,0 km/h (0 Bft) N 0 0 min 0 UV-I 0 W/m 0,0 km/h (0 Bft)
02.11.2011 00:30 7,2 C 93 % 1014,7 hPa 0,0 mm 0,0 km/h (0 Bft) N 0 0 min 0 UV-I 0 W/m 0,0 km/h (0 Bft)
02.11.2011 00:40 7,0 C 93 % 1014,9 hPa 0,0 mm 0,0 km/h (0 Bft) N 0 0 min 0 UV-I 0 W/m 0,0 km/h (0 Bft)
02.11.2011 00:50 7,0 C 92 % 1014,8 hPa 0,0 mm 0,0 km/h (0 Bft) N 0 0 min 0 UV-I 0 W/m 0,0 km/h (0 Bft)
02.11.2011 01:00 6,9 C 93 % 1014,8 hPa 0,0 mm 0,0 km/h (0 Bft) N 0 0 min 0 UV-I 0 W/m 0,0 km/h (0 Bft)
02.11.2011 01:10 7,1 C 93 % 1014,7 hPa 0,0 mm 0,0 km/h (0 Bft) SO 135 0 min 0 UV-I 0 W/m 1,6 km/h (1 Bft)
02.11.2011 01:20 7,5 C 93 % 1014,8 hPa 0,0 mm 0,0 km/h (0 Bft) N 0 0 min 0 UV-I 0 W/m 0,0 km/h (0 Bft)
02.11.2011 01:30 7,6 C 93 % 1014,9 hPa 0,0 mm 0,0 km/h (0 Bft) SO 135 0 min 0 UV-I 0 W/m 1,6 km/h (1 Bft)
02.11.2011 01:40 7,6 C 93 % 1014,9 hPa 0,0 mm 0,0 km/h (0 Bft) N 0 0 min 0 UV-I 0 W/m 0,0 km/h (0 Bft)
02.11.2011 01:50 7,7 C 93 % 1014,9 hPa 0,0 mm 0,0 km/h (0 Bft) SO 135 0 min 0 UV-I 0 W/m 3,2 km/h (1 Bft)
02.11.2011 02:00 7,9 C 94 % 1014,9 hPa 0,0 mm 0,0 km/h (0 Bft) N 0 0 min 0 UV-I 0 W/m 0,0 km/h (0 Bft)
02.11.2011 02:10 8,2 C 93 % 1015,0 hPa 0,0 mm 0,0 km/h (0 Bft) N 0 0 min 0 UV-I 0 W/m 0,0 km/h (0 Bft)
02.11.2011 02:20 8,4 C 94 % 1014,9 hPa 0,0 mm 0,0 km/h (0 Bft) SO 135 0 min 0 UV-I 0 W/m 1,6 km/h (1 Bft)
02.11.2011 02:30 8,5 C 94 % 1014,8 hPa 0,0 mm 0,0 km/h (0 Bft) SO 135 0 min 0 UV-I 0 W/m 1,6 km/h (1 Bft)
02.11.2011 02:40 8,7 C 94 % 1014,7 hPa 0,0 mm 0,0 km/h (0 Bft) SO 135 0 min 0 UV-I 0 W/m 3,2 km/h (1 Bft)
02.11.2011 02:50 8,8 C 94 % 1014,7 hPa 0,0 mm 0,0 km/h (0 Bft) SO 135 0 min 0 UV-I 0 W/m 3,2 km/h (1 Bft)
02.11.2011 03:00 8,9 C 93 % 1014,6 hPa 0,0 mm 0,0 km/h (0 Bft) SO 135 0 min 0 UV-I 0 W/m 4,8 km/h (1 Bft)
02.11.2011 03:10 9,0 C 94 % 1014,5 hPa 0,0 mm 0,0 km/h (0 Bft) SO 135 0 min 0 UV-I 0 W/m 1,6 km/h (1 Bft)
02.11.2011 03:20 9,1 C 94 % 1014,6 hPa 0,0 mm 0,0 km/h (0 Bft) SO 135 0 min 0 UV-I 0 W/m 6,4 km/h (2 Bft)
02.11.2011 03:30 9,3 C 93 % 1014,5 hPa 0,0 mm 0,0 km/h (0 Bft) SO 135 0 min 0 UV-I 0 W/m 6,4 km/h (2 Bft)
02.11.2011 03:40 9,2 C 93 % 1014,4 hPa 0,0 mm 0,0 km/h (0 Bft) SO 135 0 min 0 UV-I 0 W/m 6,4 km/h (2 Bft)
02.11.2011 03:50 9,4 C 94 % 1014,4 hPa 0,0 mm 1,6 km/h (1 Bft) SO 135 0 min 0 UV-I 0 W/m 8,0 km/h (2 Bft)
02.11.2011 04:00 9,6 C 93 % 1014,4 hPa 0,0 mm 0,0 km/h (0 Bft) SO 135 0 min 0 UV-I 0 W/m 1,6 km/h (1 Bft)
02.11.2011 04:10 9,6 C 93 % 1014,4 hPa 0,0 mm 0,0 km/h (0 Bft) SO 135 0 min 0 UV-I 0 W/m 3,2 km/h (1 Bft)
02.11.2011 04:20 9,7 C 93 % 1014,4 hPa 0,0 mm 0,0 km/h (0 Bft) SO 135 0 min 0 UV-I 0 W/m 1,6 km/h (1 Bft)
02.11.2011 04:30 9,5 C 93 % 1014,3 hPa 0,0 mm 0,0 km/h (0 Bft) SO 135 0 min 0 UV-I 0 W/m 1,6 km/h (1 Bft)
02.11.2011 04:40 9,4 C 93 % 1014,5 hPa 0,0 mm 0,0 km/h (0 Bft) SO 135 0 min 0 UV-I 0 W/m 1,6 km/h (1 Bft)
02.11.2011 04:50 9,5 C 93 % 1014,4 hPa 0,0 mm 0,0 km/h (0 Bft) SO 135 0 min 0 UV-I 0 W/m 3,2 km/h (1 Bft)
02.11.2011 05:00 9,6 C 93 % 1014,5 hPa 0,0 mm 0,0 km/h (0 Bft) SO 135 0 min 0 UV-I 0 W/m 3,2 km/h (1 Bft)
02.11.2011 05:10 9,7 C 93 % 1014,5 hPa 0,0 mm 0,0 km/h (0 Bft) N 0 0 min 0 UV-I 0 W/m 0,0 km/h (0 Bft)
02.11.2011 05:20 9,6 C 93 % 1014,6 hPa 0,0 mm 0,0 km/h (0 Bft) SO 135 0 min 0 UV-I 0 W/m 1,6 km/h (1 Bft)
02.11.2011 05:30 9,6 C 93 % 1014,7 hPa 0,0 mm 1,6 km/h (1 Bft) S-SO 157 0 min 0 UV-I 0 W/m 14,5 km/h (3 Bft)
02.11.2011 05:40 9,6 C 92 % 1014,8 hPa 0,0 mm 4,8 km/h (1 Bft) S-SO 157 0 min 0 UV-I 0 W/m 14,5 km/h (3 Bft)
02.11.2011 05:50 9,6 C 92 % 1014,7 hPa 0,0 mm 1,6 km/h (1 Bft) SO 135 0 min 0 UV-I 0 W/m 11,3 km/h (2 Bft)
02.11.2011 06:00 9,7 C 92 % 1014,8 hPa 0,0 mm 0,0 km/h (0 Bft) SO 135 0 min 0 UV-I 0 W/m 6,4 km/h (2 Bft)
02.11.2011 06:10 9,8 C 91 % 1014,7 hPa 0,0 mm 0,0 km/h (0 Bft) SO 135 0 min 0 UV-I 0 W/m 4,8 km/h (1 Bft)
02.11.2011 06:20 9,8 C 91 % 1014,9 hPa 0,0 mm 0,0 km/h (0 Bft) SO 135 0 min 0 UV-I 0 W/m 3,2 km/h (1 Bft)
02.11.2011 06:30 9,9 C 91 % 1015,0 hPa 0,0 mm 0,0 km/h (0 Bft) SO 135 0 min 0 UV-I 0 W/m 6,4 km/h (2 Bft)
02.11.2011 06:40 9,9 C 91 % 1015,1 hPa 0,0 mm 1,6 km/h (1 Bft) SO 135 0 min 0 UV-I 0 W/m 6,4 km/h (2 Bft)
02.11.2011 06:50 9,9 C 90 % 1015,1 hPa 0,3 mm 3,2 km/h (1 Bft) S-SO 157 0 min 0 UV-I 0 W/m 9,7 km/h (2 Bft)
02.11.2011 07:00 9,9 C 90 % 1015,2 hPa 0,0 mm 1,6 km/h (1 Bft) S-SO 157 0 min 0 UV-I 0 W/m 8,0 km/h (2 Bft)
02.11.2011 07:10 9,9 C 90 % 1015,2 hPa 0,0 mm 0,0 km/h (0 Bft) S-SO 157 0 min 0 UV-I 0 W/m 6,4 km/h (2 Bft)
02.11.2011 07:20 9,8 C 90 % 1015,2 hPa 0,0 mm 0,0 km/h (0 Bft) S-SO 157 0 min 0 UV-I 0 W/m 6,4 km/h (2 Bft)
02.11.2011 07:30 9,8 C 90 % 1015,2 hPa 0,0 mm 1,6 km/h (1 Bft) S-SO 157 0 min 0 UV-I 0 W/m 9,7 km/h (2 Bft)
02.11.2011 07:40 9,8 C 90 % 1015,2 hPa 0,0 mm 1,6 km/h (1 Bft) S-SO 157 0 min 0 UV-I 0 W/m 11,3 km/h (2 Bft)
02.11.2011 07:50 9,8 C 90 % 1015,2 hPa 0,0 mm 1,6 km/h (1 Bft) S-SO 157 0 min 0 UV-I 0 W/m 8,0 km/h (2 Bft)
02.11.2011 08:00 9,9 C 90 % 1015,3 hPa 0,0 mm 1,6 km/h (1 Bft) S-SO 157 0 min 0 UV-I 5 W/m 6,4 km/h (2 Bft)
02.11.2011 08:10 9,9 C 90 % 1015,3 hPa 0,0 mm 0,4 km/h (0 Bft) S-SO 159 0 min 0 UV-I 11 W/m 3,2 km/h (1 Bft)
02.11.2011 08:20 10,0 C 90 % 1015,3 hPa 0,0 mm 1,6 km/h (1 Bft) S-SO 157 0 min 0 UV-I 14 W/m 6,4 km/h (2 Bft)
02.11.2011 08:30 10,1 C 90 % 1015,2 hPa 0,0 mm 0,0 km/h (0 Bft) S-SO 157 0 min 0 UV-I 12 W/m 4,8 km/h (1 Bft)
02.11.2011 08:40 10,2 C 90 % 1015,4 hPa 0,0 mm 0,0 km/h (0 Bft) S-SO 157 0 min 0 UV-I 19 W/m 4,8 km/h (1 Bft)
02.11.2011 08:50 10,3 C 90 % 1015,3 hPa 0,0 mm 1,6 km/h (1 Bft) S-SO 157 0 min 0 UV-I 23 W/m 6,4 km/h (2 Bft)
02.11.2011 09:00 10,4 C 90 % 1015,2 hPa 0,0 mm 0,0 km/h (0 Bft) S-SO 157 0 min 0 UV-I 33 W/m 6,4 km/h (2 Bft)
02.11.2011 09:10 10,6 C 89 % 1015,2 hPa 0,0 mm 1,6 km/h (1 Bft) S-SO 157 0 min 0 UV-I 35 W/m 6,4 km/h (2 Bft)
02.11.2011 09:20 10,7 C 89 % 1015,1 hPa 0,0 mm 0,0 km/h (0 Bft) S-SO 157 0 min 0 UV-I 14 W/m 3,2 km/h (1 Bft)
02.11.2011 09:30 10,7 C 89 % 1015,1 hPa 0,0 mm 1,6 km/h (1 Bft) S-SO 157 0 min 1 UV-I 79 W/m 6,4 km/h (2 Bft)
02.11.2011 09:40 11,0 C 89 % 1015,0 hPa 0,0 mm 0,0 km/h (0 Bft) S-SO 157 0 min 1 UV-I 141 W/m 4,8 km/h (1 Bft)
02.11.2011 09:50 11,3 C 88 % 1014,9 hPa 0,0 mm 0,0 km/h (0 Bft) S-SO 157 10 min 1 UV-I 192 W/m 3,2 km/h (1 Bft)
02.11.2011 10:00 11,6 C 87 % 1015,0 hPa 0,0 mm 0,0 km/h (0 Bft) S-SO 157 0 min 0 UV-I 76 W/m 4,8 km/h (1 Bft)
02.11.2011 10:10 11,7 C 87 % 1014,9 hPa 0,0 mm 1,6 km/h (1 Bft) S-SO 157 10 min 1 UV-I 183 W/m 6,4 km/h (2 Bft)
02.11.2011 10:20 11,9 C 86 % 1014,7 hPa 0,0 mm 0,0 km/h (0 Bft) S-SO 157 10 min 1 UV-I 258 W/m 4,8 km/h (1 Bft)
02.11.2011 10:30 12,1 C 85 % 1014,7 hPa 0,0 mm 1,6 km/h (1 Bft) S-SO 157 10 min 1 UV-I 246 W/m 4,8 km/h (1 Bft)
02.11.2011 10:40 12,1 C 85 % 1014,7 hPa 0,0 mm 1,6 km/h (1 Bft) S-SO 157 10 min 1 UV-I 258 W/m 9,7 km/h (2 Bft)
02.11.2011 10:50 12,7 C 83 % 1014,6 hPa 0,0 mm 3,2 km/h (1 Bft) SO 135 10 min 1 UV-I 255 W/m 8,0 km/h (2 Bft)
02.11.2011 11:00 13,1 C 81 % 1014,6 hPa 0,0 mm 1,6 km/h (1 Bft) SO 135 10 min 1 UV-I 248 W/m 8,0 km/h (2 Bft)
02.11.2011 11:10 13,5 C 81 % 1014,6 hPa 0,0 mm 1,6 km/h (1 Bft) SO 135 10 min 1 UV-I 264 W/m 6,4 km/h (2 Bft)
02.11.2011 11:20 13,4 C 81 % 1014,6 hPa 0,0 mm 3,2 km/h (1 Bft) SO 135 10 min 1 UV-I 269 W/m 8,0 km/h (2 Bft)
02.11.2011 11:30 13,4 C 80 % 1014,5 hPa 0,0 mm 3,2 km/h (1 Bft) O-SO 112 10 min 1 UV-I 297 W/m 9,7 km/h (2 Bft)
02.11.2011 11:40 13,5 C 80 % 1014,4 hPa 0,0 mm 3,2 km/h (1 Bft) O 90 10 min 1 UV-I 297 W/m 11,3 km/h (2 Bft)
02.11.2011 11:50 14,1 C 78 % 1014,2 hPa 0,0 mm 1,6 km/h (1 Bft) O 90 10 min 1 UV-I 297 W/m 9,7 km/h (2 Bft)
02.11.2011 12:00 14,5 C 78 % 1014,2 hPa 0,0 mm 4,8 km/h (1 Bft) O 90 10 min 1 UV-I 297 W/m 14,5 km/h (3 Bft)
02.11.2011 12:10 14,1 C 78 % 1014,1 hPa 0,0 mm 4,8 km/h (1 Bft) O-SO 112 10 min 1 UV-I 285 W/m 14,5 km/h (3 Bft)
02.11.2011 12:20 13,7 C 79 % 1014,0 hPa 0,0 mm 6,4 km/h (2 Bft) O-SO 112 10 min 2 UV-I 390 W/m 16,1 km/h (3 Bft)
02.11.2011 12:30 13,9 C 78 % 1013,9 hPa 0,0 mm 3,2 km/h (1 Bft) O-SO 112 10 min 2 UV-I 359 W/m 11,3 km/h (2 Bft)
02.11.2011 12:40 13,8 C 79 % 1013,9 hPa 0,0 mm 4,8 km/h (1 Bft) O 90 10 min 1 UV-I 294 W/m 14,5 km/h (3 Bft)
02.11.2011 12:50 13,7 C 77 % 1014,0 hPa 0,0 mm 6,4 km/h (2 Bft) SO 135 10 min 1 UV-I 302 W/m 17,7 km/h (3 Bft)
02.11.2011 13:00 13,9 C 76 % 1013,8 hPa 0,0 mm 4,8 km/h (1 Bft) O-SO 112 10 min 1 UV-I 315 W/m 16,1 km/h (3 Bft)
02.11.2011 13:10 13,7 C 77 % 1013,6 hPa 0,0 mm 4,8 km/h (1 Bft) O-SO 112 10 min 1 UV-I 316 W/m 19,3 km/h (3 Bft)
02.11.2011 13:20 13,2 C 79 % 1013,5 hPa 0,0 mm 4,8 km/h (1 Bft) O-SO 112 10 min 1 UV-I 246 W/m 19,3 km/h (3 Bft)
02.11.2011 13:30 13,3 C 79 % 1013,4 hPa 0,0 mm 4,8 km/h (1 Bft) O-SO 112 10 min 1 UV-I 221 W/m 12,9 km/h (3 Bft)
02.11.2011 13:40 13,3 C 78 % 1013,3 hPa 0,0 mm 8,0 km/h (2 Bft) O-SO 112 0 min 1 UV-I 176 W/m 24,1 km/h (4 Bft)
02.11.2011 13:50 13,3 C 78 % 1013,2 hPa 0,0 mm 4,8 km/h (1 Bft) SO 135 10 min 1 UV-I 403 W/m 20,9 km/h (4 Bft)
02.11.2011 14:00 13,4 C 78 % 1013,0 hPa 0,0 mm 6,4 km/h (2 Bft) O-SO 112 10 min 1 UV-I 396 W/m 17,7 km/h (3 Bft)
02.11.2011 14:10 13,2 C 79 % 1012,9 hPa 0,0 mm 4,8 km/h (1 Bft) O-SO 112 10 min 1 UV-I 178 W/m 16,1 km/h (3 Bft)
02.11.2011 14:20 13,0 C 79 % 1012,8 hPa 0,0 mm 4,8 km/h (1 Bft) SO 135 0 min 1 UV-I 155 W/m 16,1 km/h (3 Bft)
02.11.2011 14:30 12,9 C 80 % 1012,8 hPa 0,0 mm 3,2 km/h (1 Bft) SO 135 10 min 1 UV-I 181 W/m 11,3 km/h (2 Bft)
02.11.2011 14:40 12,9 C 80 % 1012,7 hPa 0,0 mm 4,8 km/h (1 Bft) O-SO 112 10 min 1 UV-I 185 W/m 19,3 km/h (3 Bft)
02.11.2011 14:50 12,8 C 80 % 1012,6 hPa 0,0 mm 6,4 km/h (2 Bft) O-SO 112 0 min 1 UV-I 135 W/m 19,3 km/h (3 Bft)
02.11.2011 15:00 12,7 C 80 % 1012,7 hPa 0,0 mm 4,8 km/h (1 Bft) SO 135 0 min 1 UV-I 120 W/m 17,7 km/h (3 Bft)
02.11.2011 15:10 12,6 C 81 % 1012,6 hPa 0,0 mm 6,4 km/h (2 Bft) S-SO 157 0 min 1 UV-I 111 W/m 19,3 km/h (3 Bft)
02.11.2011 15:20 12,5 C 81 % 1012,5 hPa 0,0 mm 8,0 km/h (2 Bft) O-SO 112 10 min 1 UV-I 149 W/m 24,1 km/h (4 Bft)
02.11.2011 15:30 12,4 C 82 % 1012,5 hPa 0,0 mm 4,8 km/h (1 Bft) SO 135 0 min 0 UV-I 49 W/m 16,1 km/h (3 Bft)
02.11.2011 15:40 12,1 C 82 % 1012,3 hPa 0,0 mm 8,0 km/h (2 Bft) O-SO 112 0 min 0 UV-I 26 W/m 27,4 km/h (4 Bft)
02.11.2011 15:50 12,0 C 83 % 1012,2 hPa 0,0 mm 4,8 km/h (1 Bft) O-SO 112 0 min 0 UV-I 39 W/m 14,5 km/h (3 Bft)
02.11.2011 16:00 12,0 C 83 % 1012,1 hPa 0,0 mm 3,2 km/h (1 Bft) SO 135 0 min 0 UV-I 39 W/m 16,1 km/h (3 Bft)
02.11.2011 16:10 12,1 C 83 % 1011,9 hPa 0,0 mm 3,2 km/h (1 Bft) O-SO 112 0 min 0 UV-I 30 W/m 11,3 km/h (2 Bft)
02.11.2011 16:20 11,9 C 83 % 1011,8 hPa 0,0 mm 3,2 km/h (1 Bft) O-SO 112 0 min 0 UV-I 30 W/m 11,3 km/h (2 Bft)
02.11.2011 16:30 11,8 C 84 % 1011,6 hPa 0,0 mm 1,6 km/h (1 Bft) O-SO 112 0 min 0 UV-I 19 W/m 6,4 km/h (2 Bft)
02.11.2011 16:40 11,5 C 85 % 1011,5 hPa 0,0 mm 0,0 km/h (0 Bft) O-SO 112 0 min 0 UV-I 14 W/m 4,8 km/h (1 Bft)
02.11.2011 16:50 11,2 C 86 % 1011,5 hPa 0,0 mm 0,0 km/h (0 Bft) O-SO 112 0 min 0 UV-I 7 W/m 4,8 km/h (1 Bft)
02.11.2011 17:00 10,9 C 86 % 1011,5 hPa 0,0 mm 1,6 km/h (1 Bft) O-SO 112 0 min 0 UV-I 0 W/m 6,4 km/h (2 Bft)
02.11.2011 17:10 10,8 C 87 % 1011,3 hPa 0,0 mm 0,0 km/h (0 Bft) O-SO 112 0 min 0 UV-I 0 W/m 6,4 km/h (2 Bft)
02.11.2011 17:20 10,7 C 87 % 1011,3 hPa 0,0 mm 1,6 km/h (1 Bft) O-SO 112 0 min 0 UV-I 0 W/m 6,4 km/h (2 Bft)
02.11.2011 17:30 10,6 C 88 % 1011,2 hPa 0,0 mm 1,6 km/h (1 Bft) O-SO 112 0 min 0 UV-I 0 W/m 9,7 km/h (2 Bft)
02.11.2011 17:40 10,5 C 88 % 1011,1 hPa 0,0 mm 1,6 km/h (1 Bft) O-SO 112 0 min 0 UV-I 0 W/m 6,4 km/h (2 Bft)
02.11.2011 17:50 10,5 C 88 % 1011,1 hPa 0,0 mm 1,6 km/h (1 Bft) O-SO 112 0 min 0 UV-I 0 W/m 4,8 km/h (1 Bft)
02.11.2011 18:00 10,6 C 89 % 1010,9 hPa 0,0 mm 1,6 km/h (1 Bft) O-SO 112 0 min 0 UV-I 0 W/m 11,3 km/h (2 Bft)
02.11.2011 18:10 10,7 C 88 % 1011,0 hPa 0,0 mm 1,6 km/h (1 Bft) O-SO 112 0 min 0 UV-I 0 W/m 9,7 km/h (2 Bft)
02.11.2011 18:20 10,8 C 88 % 1010,6 hPa 0,0 mm 3,2 km/h (1 Bft) O-SO 112 0 min 0 UV-I 0 W/m 9,7 km/h (2 Bft)
02.11.2011 18:30 10,9 C 88 % 1010,6 hPa 0,0 mm 1,6 km/h (1 Bft) O-SO 112 0 min 0 UV-I 0 W/m 9,7 km/h (2 Bft)
02.11.2011 18:40 11,1 C 88 % 1010,5 hPa 0,0 mm 1,6 km/h (1 Bft) O-SO 112 0 min 0 UV-I 0 W/m 9,7 km/h (2 Bft)
02.11.2011 18:50 11,2 C 88 % 1010,4 hPa 0,0 mm 1,6 km/h (1 Bft) O-SO 112 0 min 0 UV-I 0 W/m 9,7 km/h (2 Bft)
02.11.2011 19:00 11,3 C 88 % 1010,4 hPa 0,0 mm 1,6 km/h (1 Bft) O-SO 112 0 min 0 UV-I 0 W/m 9,7 km/h (2 Bft)
02.11.2011 19:10 11,4 C 87 % 1010,3 hPa 0,0 mm 1,6 km/h (1 Bft) O-SO 112 0 min 0 UV-I 0 W/m 6,4 km/h (2 Bft)
02.11.2011 19:20 11,4 C 87 % 1010,2 hPa 0,0 mm 1,6 km/h (1 Bft) O-SO 112 0 min 0 UV-I 0 W/m 12,9 km/h (3 Bft)
02.11.2011 19:30 11,4 C 87 % 1010,1 hPa 0,0 mm 1,6 km/h (1 Bft) O-SO 112 0 min 0 UV-I 0 W/m 9,7 km/h (2 Bft)
02.11.2011 19:40 11,4 C 87 % 1010,0 hPa 0,0 mm 1,6 km/h (1 Bft) O 90 0 min 0 UV-I 0 W/m 9,7 km/h (2 Bft)
02.11.2011 19:50 11,4 C 87 % 1010,0 hPa 0,0 mm 1,6 km/h (1 Bft) O 90 0 min 0 UV-I 0 W/m 8,0 km/h (2 Bft)
02.11.2011 20:00 11,4 C 87 % 1009,9 hPa 0,0 mm 3,2 km/h (1 Bft) SO 135 0 min 0 UV-I 0 W/m 11,3 km/h (2 Bft)
02.11.2011 20:10 11,5 C 86 % 1009,8 hPa 0,0 mm 4,8 km/h (1 Bft) O-SO 112 0 min 0 UV-I 0 W/m 16,1 km/h (3 Bft)
02.11.2011 20:20 11,5 C 86 % 1009,7 hPa 0,0 mm 3,2 km/h (1 Bft) O-SO 112 0 min 0 UV-I 0 W/m 11,3 km/h (2 Bft)
02.11.2011 20:30 11,5 C 85 % 1009,6 hPa 0,0 mm 3,2 km/h (1 Bft) O-SO 112 0 min 0 UV-I 0 W/m 16,1 km/h (3 Bft)
02.11.2011 20:40 11,5 C 85 % 1009,5 hPa 0,0 mm 3,2 km/h (1 Bft) O-SO 112 0 min 0 UV-I 0 W/m 9,7 km/h (2 Bft)
02.11.2011 20:50 11,4 C 85 % 1009,3 hPa 0,0 mm 3,2 km/h (1 Bft) O-SO 112 0 min 0 UV-I 0 W/m 9,7 km/h (2 Bft)
02.11.2011 21:00 11,4 C 85 % 1009,3 hPa 0,0 mm 1,6 km/h (1 Bft) O-SO 112 0 min 0 UV-I 0 W/m 11,3 km/h (2 Bft)
02.11.2011 21:10 11,4 C 85 % 1009,1 hPa 0,0 mm 3,2 km/h (1 Bft) SO 135 0 min 0 UV-I 0 W/m 14,5 km/h (3 Bft)
02.11.2011 21:20 11,4 C 84 % 1009,1 hPa 0,0 mm 3,2 km/h (1 Bft) SO 135 0 min 0 UV-I 0 W/m 16,1 km/h (3 Bft)
02.11.2011 21:30 11,4 C 84 % 1009,0 hPa 0,0 mm 3,2 km/h (1 Bft) SO 135 0 min 0 UV-I 0 W/m 16,1 km/h (3 Bft)
02.11.2011 21:40 11,4 C 83 % 1008,9 hPa 0,0 mm 6,4 km/h (2 Bft) O-SO 112 0 min 0 UV-I 0 W/m 19,3 km/h (3 Bft)
02.11.2011 21:50 11,4 C 83 % 1008,8 hPa 0,0 mm 6,4 km/h (2 Bft) O-SO 112 0 min 0 UV-I 0 W/m 16,1 km/h (3 Bft)
02.11.2011 22:00 11,4 C 83 % 1008,7 hPa 0,0 mm 6,4 km/h (2 Bft) SO 135 0 min 0 UV-I 0 W/m 20,9 km/h (4 Bft)
02.11.2011 22:10 11,4 C 82 % 1008,6 hPa 0,0 mm 6,4 km/h (2 Bft) O-SO 112 0 min 0 UV-I 0 W/m 17,7 km/h (3 Bft)
02.11.2011 22:20 11,3 C 82 % 1008,5 hPa 0,0 mm 6,4 km/h (2 Bft) O-SO 112 0 min 0 UV-I 0 W/m 20,9 km/h (4 Bft)
02.11.2011 22:30 11,3 C 82 % 1008,3 hPa 0,0 mm 6,4 km/h (2 Bft) O-SO 112 0 min 0 UV-I 0 W/m 20,9 km/h (4 Bft)
02.11.2011 22:40 11,2 C 82 % 1008,2 hPa 0,0 mm 6,4 km/h (2 Bft) SO 135 0 min 0 UV-I 0 W/m 16,1 km/h (3 Bft)
02.11.2011 22:50 11,2 C 82 % 1008,1 hPa 0,0 mm 3,2 km/h (1 Bft) SO 135 0 min 0 UV-I 0 W/m 16,1 km/h (3 Bft)
02.11.2011 23:00 11,1 C 82 % 1007,9 hPa 0,0 mm 4,8 km/h (1 Bft) O-SO 112 0 min 0 UV-I 0 W/m 17,7 km/h (3 Bft)
02.11.2011 23:10 11,0 C 82 % 1007,8 hPa 0,0 mm 4,8 km/h (1 Bft) O-SO 112 0 min 0 UV-I 0 W/m 14,5 km/h (3 Bft)
02.11.2011 23:20 10,9 C 82 % 1007,8 hPa 0,0 mm 3,2 km/h (1 Bft) O-SO 112 0 min 0 UV-I 0 W/m 16,1 km/h (3 Bft)
02.11.2011 23:30 10,8 C 82 % 1007,7 hPa 0,0 mm 3,2 km/h (1 Bft) O 90 0 min 0 UV-I 0 W/m 12,9 km/h (3 Bft)
02.11.2011 23:40 10,7 C 83 % 1007,6 hPa 0,0 mm 4,8 km/h (1 Bft) SO 135 0 min 0 UV-I 0 W/m 11,3 km/h (2 Bft)
02.11.2011 23:50 10,7 C 83 % 1007,5 hPa 0,0 mm 4,8 km/h (1 Bft) O-SO 112 0 min 0 UV-I 0 W/m 16,1 km/h (3 Bft)
_ Min-Zeit 01:00 13:00 23:50 - 00:00 - - - - - 00:00
Minimum _ 6,8 C 76 % 1007,5 hPa - 0,0 km/h (0 Bft) - - - - - 0,0 km/h (0 Bft)
_ Max-Zeit 12:00 02:00 08:40 06:50 13:40 - - 09:50 12:20 13:50 15:40
Maximum _ 14,7 C 94 % 1015,4 hPa 0,3 mm 8,0 km/h
O-SO (2 Bft)
- - 10 min 2 UV-I 403 W/m 27,4 km/h
O-SO (4 Bft)
Durchschnitt _ 10,8 C 87 % 1012,9 hPa #0,3 mm 2,3 km/h (1 Bft) O-SO - #4:40 h 1 UV-I 167 W/m 9,4 km/h (2 Bft)